Location: Brede
(50.9167°N, 0.6000°E)
Time: 01:42:39
(UTC+00:00)

USA 229 DEB - Pass Details

Date: 08 August 2020
Orbit: 974 x 1238 km, 63.4° (Epoch: 17 September)

Event Time Altitude Azimuth Distance (km) Brightness Sun altitude
Exits shadow 03:52:49 - 232° (SW) 2,985 5.3 -6.5°
Reaches altitude 10° 03:53:23 10° 232° (SW) 2,778 5.2 -6.4°
Maximum altitude 03:59:55 73° 318° (NW) 1,092 3.8 -5.5°
Drops below altitude 10° 04:06:55 10° 43° (NE) 2,962 7.7 -4.6°
Sets 04:09:42 0° 46° (NE) 3,963 8.8 -4.2°
